UAE-813

operational
NORAD ID: 66993 Int'l Des: 2025-292 Owner: UAESA/UAEU Country: UAE
LEOCIRCULARRETROGRADESSO

About UAE-813

Description loading...

Live Position

Loading 3D Globe...

Upcoming Passes

Altitude History

Altitude vs Time

uPlot chart will show altitude changes over time

Two-Line Element Set

1 66993U 25292A 25347.27248290 .00007692 00000-0 55240-3 0 9991
2 66993 97.6534 59.8183 0013906 271.1381 88.8252 15.04498043 477
Epoch: Dec 13, 2025 • Age: 21 hours

Current Status

Altitude 575.8 km
Velocity 7.57 km/s
Sub-Earth Point 78.80°N, 119.64°W
Launch Date Dec 10, 2025
Age 4 days
Type other

Technical Details

Classification Payload
Mass 260.00 kg
Dry Mass 260.00 kg
Total Mass 260.00 kg
Length 1.00 m
Diameter 1.00 m
Span 6.00 m
Shape Box+ pan
Manufacturer IMICAS/UAEU
Phase Status In Orbit
Owner/State UAESA/UAEU/UAE

Large Constellations

Loading constellations...